Tracking 30923 objects as of 1-Jul-2025
HD Live streaming from Space Station
objects crossing your sky now

USA 356

Track USA 356 now!
10-day predictions


NORAD ID: 59816
Int'l Code: 2024-096C
Perigee: 581.6 km
Apogee: 586.8 km
Inclination: 70.0 °
Period: 96.2 minutes
Semi major axis: 6955 km
RCS: Unknown
Launch date: May 22, 2024
Source: United States (US)
Launch site: AIR FORCE WESTERN TEST RANGE (AFWTR)
Your satellite tracking list
GSAT 9
Track 1 satellite(s)




NASA's NSSDC Master Catalog

Two Line Element Set (TLE):
1 59816U 24096C   25172.02791069 0.00000000  00000-0  00000-0 0    04
2 59816  69.9878 139.6627 0003705   5.6695 354.3305 14.96713866    02
Source of the keplerian elements: McCants